Dewpoint
54 55 52 52 54 56 55 55 58 58 56 56 54 51 52 53 53 43 41 45 45 49 46 33 34 36 35 39 41 37 28 22 21 22 25 31 27 31 32 30 28 29 29 33 35
54 55 52 51 53 55 56 56 60 57 56 55 53 51 52 53 43 40 47 49 48 45 32 28 29 32 31 34 35 33 27 23 30 29 27 29 28 27 27 26 26 27 28 29 30
54 53 53 51 52 53 55 58 58 58 56 54 52 51 48 45 39 41 51 47 47 41 34 31 28 27 29 31 28 32 26 30 27 28 30 27 26 25 23 24 23 22 22 25 26
54 53 53 52 51 50 53 58 59 58 56 54 53 49 49 40 35 37 46 44 43 35 32 30 26 24 25 24 25 23 27 28 27 28 29 24 22 20 19 19 18 18 20 21 22
54 53 52 50 49 49 52 56 59 57 57 54 51 47 43 36 35 33 40 35 31 31 29 28 24 23 20 20 21 18 19 22 25 26 26 23 21 18 16 15 15 16 18 20 22
52 52 51 49 48 50 53 58 59 58 56 53 50 47 41 34 37 33 31 31 30 30 29 27 25 23 21 20 17 21 20 19 20 21 20 19 17 16 13 13 14 16 19 20 22
52 51 51 50 49 48 54 59 58 54 53 52 49 39 37 35 34 33 34 34 34 33 30 31 30 24 20 20 23 20 15 12 16 18 20 25 22 22 20 19 18 18 19 22 23
51 50 50 50 49 50 55 58 56 55 54 49 45 38 36 39 34 32 33 34 36 36 36 34 32 29 26 24 20 19 18 15 18 22 25 25 19 16 17 17 21 23 25 28 29
49 48 48 49 50 52 57 56 55 53 50 44 38 35 33 38 31 33 34 33 34 35 35 33 34 30 30 27 25 23 13 15 18 25 24 24 22 21 22 23 26 27 27 27 29
54 55 54 53 54 56 55 54 53 47 37 32 31 31 34 30 31 32 33 35 33 34 35 33 34 33 31 31 22 24 21 18 17 20 24 26 26 26 27 28 28 28 30 31 32
53 54 52 53 53 52 50 42 33 32 33 30 30 30 30 31 33 33 34 33 34 30 29 31 38 31 27 25 24 25 21 21 24 27 27 26 27 28 28 29 29 31 33 35 36
52 51 52 52 50 49 46 39 40 37 33 34 34 33 32 32 30 34 35 32 31 32 31 32 31 27 29 29 28 28 29 27 28 28 28 28 28 29 29 29 32 32 36 38 40
52 52 51 49 49 47 43 43 45 41 33 34 35 35 36 36 33 35 36 35 32 34 32 33 28 29 29 31 29 29 27 27 31 30 30 28 27 28 28 30 33 34 38 39 42
51 51 51 49 45 45 42 44 44 42 39 30 33 35 35 37 34 38 38 37 35 33 33 32 31 30 31 31 30 28 29 29 29 31 27 28 25 26 29 32 33 35 37 39 40
51 50 50 50 43 41 43 44 43 38 30 29 32 37 36 35 35 37 40 38 35 34 34 31 30 32 33 31 31 29 31 32 33 33 31 28 29 27 33 33 33 34 38 39 40
49 48 47 46 44 43 45 43 38 36 26 33 33 33 33 34 36 38 38 40 39 36 34 34 35 34 33 33 33 33 33 34 33 33 27 27 28 28 34 35 35 37 36 38 39
49 48 46 43 40 45 43 38 36 31 26 30 31 32 31 30 32 36 36 33 34 34 35 34 33 34 34 34 35 35 34 31 29 28 27 30 31 33 36 37 37 36 37 38 39
49 48 45 43 46 45 41 37 31 25 27 30 31 30 29 30 31 33 34 32 35 34 34 33 34 32 35 34 34 33 35 30 23 23 24 29 29 34 36 38 38 38 38 38 36
48 45 44 44 46 44 36 37 33 29 29 29 29 26 26 28 30 29 29 29 31 33 31 30 29 31 33 33 35 32 32 33 32 27 26 29 31 36 36 35 38 37 36 31 29
42 41 43 43 45 43 40 31 31 30 31 29 24 26 23 25 27 27 26 28 30 32 33 31 31 30 32 35 35 35 34 28 34 23 22 25 28 34 35 37 37 37 33 30 27
43 36 44 43 43 38 39 32 31 32 32 30 27 26 25 24 26 23 24 27 30 32 33 32 30 29 30 31 29 33 29 27 27 27 23 20 30 40 37 38 37 36 35 26 24
41 41 43 43 39 33 31 31 35 34 34 33 32 29 26 26 25 24 23 24 30 32 29 31 29 29 25 28 29 27 25 23 26 24 25 24 27 34 32 35 35 34 32 24 24
35 36 44 41 38 31 32 31 32 32 31 31 30 30 29 26 24 25 26 31 32 33 30 31 29 27 23 23 27 26 26 25 23 29 27 23 18 31 32 34 34 33 31 28 25
35 39 37 35 33 28 28 28 29 34 32 31 29 30 28 25 26 24 26 28 34 33 36 33 28 27 22 20 22 22 21 25 26 28 22 22 20 19 26 30 31 33 32 28 25
35 34 34 35 27 29 28 26 26 28 33 32 29 28 24 19 22 22 24 26 29 33 34 33 28 27 27 25 25 25 23 23 26 26 21 18 19 18 20 23 27 30 31 29 25
36 32 33 30 30 28 28 27 25 24 27 27 29 25 27 23 18 13 21 22 20 30 29 30 25 25 25 21 20 21 22 22 22 22 24 24 22 21 22 23 25 29 30 30 28
39 38 34 31 27 26 23 23 26 27 27 28 28 27 26 27 27 27 26 27 25 25 26 26 26 25 20 19 18 14 14 17 20 21 21 21 19 21 24 27 29 30 31 31 30
Lifted_Index
1 1 2 4 4 5 5 4 3 3 4 5 7 8 8 7 7 7 8 9 10 11 11 11 11 10 10 9 9 8 7 6 7 7 8 9 10 10 10 11 10 10 10 10 11
1 1 2 4 5 5 5 4 3 3 4 5 7 8 7 7 7 7 8 9 10 11 11 11 11 10 10 9 9 8 7 7 8 8 9 10 10 10 10 10 10 11 11 11 11
1 1 2 4 5 5 5 3 3 3 4 5 7 8 8 7 7 8 9 10 11 11 11 11 11 10 9 9 9 8 8 8 9 10 10 10 10 11 10 10 11 12 12 12 13
0 1 2 3 5 6 5 3 3 3 4 5 7 8 8 7 8 9 11 11 11 12 11 11 10 10 9 9 9 9 9 9 10 11 11 11 11 11 11 11 12 13 14 14 14
0 1 2 3 5 6 5 3 2 3 4 5 7 8 7 7 9 11 12 12 12 12 12 11 11 10 9 9 9 9 9 10 11 11 11 11 11 11 11 12 13 14 15 15 15
0 1 2 3 5 6 5 3 2 3 4 5 7 7 6 7 10 12 12 12 12 12 12 12 12 11 10 10 10 10 10 10 11 12 12 11 11 11 11 12 14 14 14 14 15
1 1 2 3 5 5 4 2 2 3 5 6 7 7 7 8 10 12 12 12 12 12 12 12 13 12 12 11 11 10 9 10 10 11 12 11 10 10 12 12 13 13 13 13 13
1 2 2 3 4 4 3 2 3 4 6 7 7 7 7 9 11 11 11 11 11 12 12 12 12 12 12 11 10 9 8 8 9 11 12 11 9 10 11 12 12 12 12 12 12
2 2 2 3 3 3 2 3 4 6 7 8 8 8 8 10 11 11 11 11 11 11 11 11 11 11 10 9 8 7 6 7 8 10 11 10 9 9 10 11 10 10 9 10 10
2 1 2 2 2 2 3 4 6 7 8 8 8 8 9 10 11 11 11 10 10 10 10 10 9 9 9 8 7 6 6 7 8 9 10 9 8 8 8 8 8 8 7 7 7
2 2 2 2 2 3 4 5 6 7 8 8 8 9 10 10 10 10 10 10 9 9 9 9 8 8 8 8 7 7 7 7 7 8 8 7 7 6 6 7 6 6 5 4 4
4 4 4 4 4 4 5 6 6 7 7 7 8 9 9 10 9 9 9 9 8 8 8 8 7 7 8 7 7 7 6 6 6 6 6 5 5 5 6 6 6 5 5 4 3
5 5 5 5 5 6 6 7 7 7 6 7 8 8 9 9 8 9 9 8 8 7 7 6 6 6 6 6 5 5 5 5 5 4 5 4 4 4 5 6 6 6 6 5 4
5 5 6 6 6 6 7 8 8 7 6 6 7 8 8 8 8 8 8 7 7 6 6 5 5 5 5 4 4 4 5 5 4 4 4 4 3 4 5 5 6 6 6 5 4
6 6 6 6 6 7 8 8 8 6 4 5 7 7 7 7 7 6 6 6 5 5 5 5 5 5 4 5 5 5 5 5 5 4 4 3 3 4 4 5 6 6 6 5 5
6 6 7 7 7 8 8 8 7 5 4 5 6 6 6 6 5 5 5 5 5 4 4 5 5 5 5 5 5 5 5 4 4 3 3 3 3 3 4 5 5 6 6 6 6
7 7 7 7 8 8 8 6 4 4 4 5 5 5 5 5 5 5 4 4 4 4 4 4 5 5 6 5 5 5 4 3 2 1 2 3 3 3 4 5 6 6 6 7 7
7 8 8 8 8 8 7 5 3 4 5 5 5 5 5 5 5 5 4 4 4 4 4 4 4 5 6 6 5 5 4 2 1 1 2 2 2 3 4 5 6 6 7 8 9
8 8 8 8 8 7 6 4 4 5 6 6 5 5 5 5 5 5 5 5 5 5 5 4 4 5 6 6 6 5 4 3 2 1 1 2 3 3 4 5 5 6 8 10 10
9 9 8 9 8 7 5 5 6 7 7 6 6 5 5 5 5 5 5 6 6 6 6 5 5 5 6 6 6 5 5 4 3 2 1 2 2 3 4 5 5 6 8 9 11
10 9 9 10 8 7 6 6 7 8 7 7 6 6 6 6 6 6 6 7 7 7 7 6 6 5 6 6 6 6 6 5 3 2 2 2 2 4 5 6 6 6 7 9 10
10 9 10 10 8 7 6 7 7 8 7 7 7 7 7 7 7 7 7 7 8 7 7 7 6 5 5 6 7 7 7 6 5 4 3 2 3 4 5 6 6 6 8 9 10
10 10 10 10 8 7 7 7 7 8 8 7 7 8 8 7 7 7 8 8 8 8 8 8 6 4 4 6 7 7 7 7 6 5 3 3 3 5 6 6 6 7 8 10 10
10 10 10 9 9 8 8 8 8 8 8 8 8 8 8 7 7 7 8 9 9 9 9 8 6 4 4 5 6 6 6 6 6 5 4 4 5 6 7 7 7 8 9 10 11
11 11 10 10 9 9 9 8 8 9 9 9 9 9 8 7 7 7 8 9 9 10 10 8 6 5 4 5 5 5 5 6 5 5 4 5 6 7 8 8 8 8 9 11 11
12 12 12 11 10 10 9 9 9 9 10 10 9 9 9 8 8 8 9 9 9 10 10 8 6 4 4 5 4 4 4 5 5 5 5 5 6 8 9 9 9 9 10 10 11
13 13 13 12 10 10 9 9 9 10 11 11 10 10 10 10 10 10 10 10 10 10 9 8 6 4 3 4 4 3 4 5 5 6 6 5 7 8 9 9 9 9 10 10 11